H1 CPF 2 NER 2025 7 30 9 211 01 glonass129 H2 1106402 9129 37868 2025 7 30 0 0 0 2025 8 2 23 45 0 900 1 1 0 0 0 1 H9 10 0 60886 0.00000 0 7161239.365 -17790724.527 16826368.364 10 0 60886 900.00000 0 8410801.874 -19262171.720 14451607.436 10 0 60886 1800.00000 0 9349250.195 -20585613.534 11796111.452 10 0 60886 2700.00000 0 9985674.378 -21700408.008 8911298.012 10 0 60886 3600.00000 0 10341359.534 -22551047.180 5853125.503 10 0 60886 4500.00000 0 10448647.286 -23089545.640 2681011.648 10 0 60886 5400.00000 0 10349332.396 -23277537.067 -543322.849 10 0 60886 6300.00000 0 10092661.956 -23087988.162 -3757062.861 10 0 60886 7200.00000 0 9733022.043 -22506455.075 -6897535.119 10 0 60886 8100.00000 0 9327410.695 -21531826.710 -9903446.712 10 0 60886 9000.00000 0 8932805.795 -20176521.052 -12716099.897 10 0 60886 9900.00000 0 8603541.389 -18466124.282 -15280557.441 10 0 60886 10800.00000 0 8388805.921 -16438486.477 -17546733.816 10 0 60886 11700.00000 0 8330370.669 -14142311.256 -19470389.133 10 0 60886 12600.00000 0 8460646.748 -11635298.671 -21014004.915 10 0 60886 13500.00000 0 8801154.647 -8981919.851 -22147523.617 10 0 60886 14400.00000 0 9361472.273 -6250917.595 -22848936.914 10 0 60886 15300.00000 0 10138706.582 -3512638.726 -23104711.261 10 0 60886 16200.00000 0 11117511.134 -836310.719 -22910042.811 10 0 60886 17100.00000 0 12270648.334 1712622.882 -22268937.580 10 0 60886 18000.00000 0 13560071.732 4074996.798 -21194116.355 10 0 60886 18900.00000 0 14938481.537 6200144.443 -19706747.526 10 0 60886 19800.00000 0 16351286.594 8047752.929 -17836014.444 10 0 60886 20700.00000 0 17738888.912 9589277.006 -15618527.167 10 0 60886 21600.00000 0 19039193.621 10808855.347 -13097591.439 10 0 60886 22500.00000 0 20190238.042 11703693.818 -10322350.371 10 0 60886 23400.00000 0 21132829.009 12283902.858 -7346816.664 10 0 60886 24300.00000 0 21813077.703 12571799.090 -4228815.069 10 0 60886 25200.00000 0 22184726.092 12600703.539 -1028856.232 10 0 60886 26100.00000 0 22211168.175 12413289.607 2191035.847 10 0 60886 27000.00000 0 21867082.431 12059552.351 5368520.030 10 0 60886 27900.00000 0 21139608.314 11594485.868 8442135.163 10 0 60886 28800.00000 0 20029018.775 11075567.152 11352475.606 10 0 60886 29700.00000 0 18548861.704 10560152.208 14043323.575 10 0 60886 30600.00000 0 16725564.983 10102893.250 16462717.788 10 0 60886 31500.00000 0 14597521.752 9753284.456 18563939.358 10 0 60886 32400.00000 0 12213693.480 9553438.034 20306397.597 10 0 60886 33300.00000 0 9631787.787 9536182.643 21656400.338 10 0 60886 34200.00000 0 6916085.055 9723562.913 22587795.354 10 0 60886 35100.00000 0 4135001.795 10125802.374 23082471.661 10 0 60886 36000.00000 0 1358489.351 10740773.335 23130711.735 10 0 60886 36900.00000 0 -1344626.780 11553996.674 22731387.939 10 0 60886 37800.00000 0 -3909259.165 12539173.055 21891998.923 10 0 60886 38700.00000 0 -6276515.947 13659225.367 20628544.184 10 0 60886 39600.00000 0 -8395903.166 14867811.195 18965237.637 10 0 60886 40500.00000 0 -10227181.301 16111244.486 16934063.717 10 0 60886 41400.00000 0 -11741799.010 17330748.300 14574182.376 10 0 60886 42300.00000 0 -12923843.845 18464945.989 11931192.271 10 0 60886 43200.00000 0 -13770469.409 19452487.482 9056264.372 10 0 60886 44100.00000 0 -14291779.875 20234700.620 6005161.137 10 0 60886 45000.00000 0 -14510175.519 20758155.443 2837159.191 10 0 60886 45900.00000 0 -14459185.789 20977032.008 -386103.977 10 0 60886 46800.00000 0 -14181838.455 20855189.816 -3601836.702 10 0 60886 47700.00000 0 -13728633.630 20367848.928 -6747328.762 10 0 60886 48600.00000 0 -13155208.859 19502809.001 -9761190.487 10 0 60886 49500.00000 0 -12519795.241 18261152.065 -12584569.405 10 0 60886 50400.00000 0 -11880573.980 16657396.922 -15162318.639 10 0 60886 51300.00000 0 -11293047.362 14719096.780 -17444092.294 10 0 60886 52200.00000 0 -10807537.621 12485895.751 -19385344.638 10 0 60886 53100.00000 0 -10466921.688 10008083.363 -20948212.061 10 0 60886 54000.00000 0 -10304699.391 7344707.807 -22102259.564 10 0 60886 54900.00000 0 -10343478.081 4561327.607 -22825076.655 10 0 60886 55800.00000 0 -10593938.397 1727496.754 -23102710.963 10 0 60886 56700.00000 0 -11054324.867 -1085910.562 -22929931.515 10 0 60886 57600.00000 0 -11710482.316 -3809423.086 -22310317.353 10 0 60886 58500.00000 0 -12536435.454 -6377629.289 -21256170.848 10 0 60886 59400.00000 0 -13495485.803 -8731657.101 -19788258.706 10 0 60886 60300.00000 0 -14541778.110 -10821373.808 -17935387.135 10 0 60886 61200.00000 0 -15622268.637 -12607215.696 -15733820.856 10 0 60886 62100.00000 0 -16679010.909 -14061573.102 -13226558.698 10 0 60886 63000.00000 0 -17651661.508 -15169675.575 -10462481.091 10 0 60886 63900.00000 0 -18480099.583 -15929943.091 -7495387.215 10 0 60886 64800.00000 0 -19107049.499 -16353791.776 -4382941.382 10 0 60886 65700.00000 0 -19480596.408 -16464905.413 -1185549.756 10 0 60886 66600.00000 0 -19556489.468 -16298006.147 2034810.411 10 0 60886 67500.00000 0 -19300136.862 -15897178.378 5215786.334 10 0 60886 68400.00000 0 -18688209.880 -15313818.050 8295847.246 10 0 60886 69300.00000 0 -17709789.954 -14604294.528 11215461.449 10 0 60886 70200.00000 0 -16367011.547 -13827423.623 13918231.183 10 0 60886 71100.00000 0 -14675174.682 -13041857.530 16351964.786 10 0 60886 72000.00000 0 -12662322.589 -12303500.321 18469666.976 10 0 60886 72900.00000 0 -10368301.685 -11663056.115 20230429.878 10 0 60886 73800.00000 0 -7843341.978 -11163811.240 21600209.279 10 0 60886 74700.00000 0 -5146215.275 -10839741.960 22552472.619 10 0 60886 75600.00000 0 -2342045.494 -10714025.919 23068707.371 10 0 60886 76500.00000 0 500140.668 -10798019.073 23138780.751 10 0 60886 77400.00000 0 3310023.858 -11090741.023 22761143.929 10 0 60886 78300.00000 0 6018657.465 -11578891.066 21942876.360 10 0 60886 79200.00000 0 8561080.191 -12237395.726 20699568.321 10 0 60886 80100.00000 0 10878769.253 -13030466.780 19055042.331 10 0 60886 81000.00000 0 12921833.592 -13913127.648 17040916.853 10 0 60886 81900.00000 0 14650856.413 -14833146.402 14696018.486 10 0 60886 82800.00000 0 16038310.096 -15733296.198 12065651.807 10 0 60886 83700.00000 0 17069483.687 -16553849.575 9200738.934 10 0 60886 84600.00000 0 17742882.978 -17235202.403 6156843.833 10 0 60886 85500.00000 0 18070085.076 -17720516.774 2993099.188 10 0 60887 0.00000 0 18075052.270 -17958270.383 -228943.490 10 0 60887 900.00000 0 17792933.070 -17904603.076 -3446519.728 10 0 60887 1800.00000 0 17268400.513 -17525358.761 -6596885.225 10 0 60887 2700.00000 0 16553598.003 -16797734.072 -9618556.620 10 0 60887 3600.00000 0 15705780.182 -15711460.820 -12452529.607 10 0 60887 4500.00000 0 14784749.950 -14269469.747 -15043450.340 10 0 60887 5400.00000 0 13850201.851 -12488005.176 -17340714.965 10 0 60887 6300.00000 0 12959086.144 -10396183.927 -19299474.015 10 0 60887 7200.00000 0 12163107.085 -8035015.975 -20881520.515 10 0 60887 8100.00000 0 11506462.933 -5455927.535 -22056043.397 10 0 60887 9000.00000 0 11023924.499 -2718848.679 -22800230.982 10 0 60887 9900.00000 0 10739334.140 110053.775 -23099712.628 10 0 60887 10800.00000 0 10664588.641 2960902.464 -22948830.363 10 0 60887 11700.00000 0 10799148.320 5762788.348 -22350735.967 10 0 60887 12600.00000 0 11130091.918 8446489.741 -21317312.718 10 0 60887 13500.00000 0 11632713.339 10947117.804 -19868924.606 10 0 60887 14400.00000 0 12271633.193 13206578.435 -18033999.313 10 0 60887 15300.00000 0 13002376.289 15175748.692 -15848454.529 10 0 60887 16200.00000 0 13773346.652 16816278.504 -13354980.150 10 0 60887 17100.00000 0 14528115.181 18101944.503 -10602191.620 10 0 60887 18000.00000 0 15207922.185 19019502.020 -7643672.001 10 0 60887 18900.00000 0 15754288.566 19569002.470 -4536922.335 10 0 60887 19800.00000 0 16111625.277 19763565.886 -1342241.292 10 0 60887 20700.00000 0 16229731.350 19628620.994 1878443.729 10 0 60887 21600.00000 0 16066075.933 19200647.265 5062771.407 10 0 60887 22500.00000 0 15587769.253 18525473.769 8149144.385 10 0 60887 23400.00000 0 14773140.708 17656207.595 11077907.758 10 0 60887 24300.00000 0 13612858.849 16650879.420 13792486.422 10 0 60887 25200.00000 0 12110547.027 15569904.917 16240460.695 10 0 60887 26100.00000 0 10282869.293 14473467.741 18374560.980 10 0 60887 27000.00000 0 8159082.686 13418932.510 20153563.994 10 0 60887 27900.00000 0 5780073.716 12458394.573 21543074.946 10 0 60887 28800.00000 0 3196917.622 11636467.498 22516182.060 10 0 60887 29700.00000 0 469018.200 10988399.349 23053972.014 10 0 60887 30600.00000 0 -2338097.162 10538595.410 23145897.100 10 0 60887 31500.00000 0 -5155238.538 10299608.574 22789987.165 10 0 60887 32400.00000 0 -7912171.446 10271639.724 21992901.843 10 0 60887 33300.00000 0 -10540285.826 10442569.720 20769821.041 10 0 60887 34200.00000 0 -12975207.479 10788523.046 19144174.209 10 0 60887 35100.00000 0 -15159245.108 11274941.256 17147211.680 10 0 60887 36000.00000 0 -17043572.092 11858123.166 14817424.134 10 0 60887 36900.00000 0 -18590052.215 12487169.034 12199819.173 10 0 60887 37800.00000 0 -19772632.553 13106248.521 9345066.967 10 0 60887 38700.00000 0 -20578244.193 13657097.945 6308529.807 10 0 60887 39600.00000 0 -21007171.522 14081641.737 3149193.258 10 0 60887 40500.00000 0 -21072873.087 14324626.874 -71480.814 10 0 60887 41400.00000 0 -20801260.126 14336157.516 -3290756.929 10 0 60887 42300.00000 0 -20229462.261 14074020.594 -6445860.072 10 0 60887 43200.00000 0 -19404131.945 13505701.305 -9475215.780 10 0 60887 44100.00000 0 -18379359.547 12610000.392 -12319670.282 10 0 60887 45000.00000 0 -17214288.002 11378181.908 -14923664.852 10 0 60887 45900.00000 0 -15970529.252 9814600.350 -17236339.455 10 0 60887 46800.00000 0 -14709493.400 7936778.490 -19212542.305 10 0 60887 47700.00000 0 -13489745.280 5774931.040 -20813724.089 10 0 60887 48600.00000 0 -12364501.841 3370953.272 -22008698.314 10 0 60887 49500.00000 0 -11379377.336 776916.754 -22774252.356 10 0 60887 50400.00000 0 -10570472.324 -1946864.439 -23095597.173 10 0 60887 51300.00000 0 -9962887.240 -4734115.470 -22966647.298 10 0 60887 52200.00000 0 -9569722.691 -7515134.227 -22390126.417 10 0 60887 53100.00000 0 -9391607.443 -10219469.933 -21377497.557 10 0 60887 54000.00000 0 -9416772.268 -12778634.558 -19948720.534 10 0 60887 54900.00000 0 -9621664.403 -15128733.781 -18131842.798 10 0 60887 55800.00000 0 -9972074.423 -17212908.113 -15962433.081 10 0 60887 56700.00000 0 -10424725.667 -18983483.338 -13482870.285 10 0 60887 57600.00000 0 -10929257.065 -20403742.081 -10741502.707 10 0 60887 58500.00000 0 -11430513.935 -21449244.592 -7791695.109 10 0 60887 59400.00000 0 -11871048.802 -22108646.049 -4690783.093 10 0 60887 60300.00000 0 -12193725.975 -22383978.933 -1498955.698 10 0 60887 61200.00000 0 -12344319.790 -22290391.403 1721911.638 10 0 60887 62100.00000 0 -12273997.285 -21855355.222 4909451.140 10 0 60887 63000.00000 0 -11941581.379 -21117378.604 8002000.947 10 0 60887 63900.00000 0 -11315500.220 -20124279.556 10939785.034 10 0 60887 64800.00000 0 -10375341.753 -18931093.053 13666053.025 10 0 60887 65700.00000 0 -9112949.057 -17597699.918 16128159.248 10 0 60887 66600.00000 0 -7533011.061 -16186276.252 18278561.721 10 0 60887 67500.00000 0 -5653123.915 -14758669.061 20075723.522 10 0 60887 68400.00000 0 -3503319.803 -13373806.293 21484900.834 10 0 60887 69300.00000 0 -1125081.568 -12085247.772 22478803.959 10 0 60887 70200.00000 0 1430117.777 -10938977.573 23038119.781 10 0 60887 71100.00000 0 4102692.438 -9971528.440 23151886.347 10 0 60887 72000.00000 0 6827162.949 -9208515.484 22817712.543 10 0 60887 72900.00000 0 9534627.909 -8663639.829 22041838.228 10 0 60887 73800.00000 0 12155388.612 -8338203.938 20839032.662 10 0 60887 74700.00000 0 14621620.135 -8221159.630 19232331.641 10 0 60887 75600.00000 0 16869979.827 -8289688.020 17252616.458 10 0 60887 76500.00000 0 18844045.952 -8510288.693 14938040.608 10 0 60887 77400.00000 0 20496485.271 -8840334.074 12333313.100 10 0 60887 78300.00000 0 21790858.773 -9230025.203 9488850.152 10 0 60887 79200.00000 0 22702989.019 -9624667.701 6459809.990 10 0 60887 80100.00000 0 23221830.306 -9967172.440 3305028.324 10 0 60887 81000.00000 0 23349803.376 -10200675.104 85874.632 10 0 60887 81900.00000 0 23102578.904 -10271162.843 -3134948.392 10 0 60887 82800.00000 0 22508317.420 -10129995.108 -6294638.020 10 0 60887 83700.00000 0 21606396.788 -9736209.585 -9331531.926 10 0 60887 84600.00000 0 20445680.604 -9058512.809 -12186329.954 10 0 60887 85500.00000 0 19082400.948 -8076868.317 -14803271.338 10 0 60888 0.00000 0 17577745.986 -6783612.463 -17131242.213 10 0 60888 900.00000 0 15995254.833 -5184047.547 -19124791.117 10 0 60888 1800.00000 0 14398133.340 -3296487.048 -20745028.059 10 0 60888 2700.00000 0 12846603.019 -1151747.447 -21960392.635 10 0 60888 3600.00000 0 11395398.282 1207891.055 -22747272.415 10 0 60888 4500.00000 0 10091517.666 3730212.006 -23090460.695 10 0 60888 5400.00000 0 8972324.210 6355013.820 -22983444.842 10 0 60888 6300.00000 0 8064074.597 9016402.216 -22428520.359 10 0 60888 7200.00000 0 7380937.936 11645327.248 -21436729.519 10 0 60888 8100.00000 0 6924543.710 14172258.261 -20027627.059 10 0 60888 9000.00000 0 6684075.724 16529884.614 -18228878.900 10 0 60888 9900.00000 0 6636905.519 18655729.368 -16075703.148 10 0 60888 10800.00000 0 6749735.875 20494567.343 -13610165.679 10 0 60888 11700.00000 0 6980203.620 22000547.602 -10880345.275 10 0 60888 12600.00000 0 7278871.836 23138933.264 -7939385.721 10 0 60888 13500.00000 0 7591525.551 23887387.975 -4844454.235 10 0 60888 14400.00000 0 7861672.732 24236757.607 -1655627.091 10 0 60888 15300.00000 0 8033144.337 24191316.972 1565275.492 10 0 60888 16200.00000 0 8052683.576 23768473.694 4755882.557 10 0 60888 17100.00000 0 7872415.615 22997943.846 7854470.934 10 0 60888 18000.00000 0 7452094.371 21920435.623 10801146.509 10 0 60888 18900.00000 0 6761032.785 20585897.310 13538986.437 10 0 60888 19800.00000 0 5779636.353 19051403.339 16015121.579 10 0 60888 20700.00000 0 4500476.246 17378766.606 18181739.790 10 0 60888 21600.00000 0 2928857.315 15631975.940 19996992.411 10 0 60888 22500.00000 0 1082856.929 13874564.277 21425788.162 10 0 60888 23400.00000 0 -1007167.951 12167015.593 22440460.631 10 0 60888 24300.00000 0 -3299586.542 10564316.779 23021297.716 10 0 60888 25200.00000 0 -5742973.262 9113754.648 23156923.610 10 0 60888 26100.00000 0 -8278001.185 7853048.359 22844526.154 10 0 60888 27000.00000 0 -10839674.252 6808894.011 22089924.836 10 0 60888 27900.00000 0 -13359808.488 5995981.655 20907477.140 10 0 60888 28800.00000 0 -15769661.861 5416525.882 19319823.523 10 0 60888 29700.00000 0 -18002605.700 5060330.354 17357474.036 10 0 60888 30600.00000 0 -19996728.077 4905384.731 15058242.321 10 0 60888 31500.00000 0 -21697261.383 4918970.412 12466535.734 10 0 60888 32400.00000 0 -23058732.702 5059230.060 9632513.215 10 0 60888 33300.00000 0 -24046746.215 5277136.062 6611125.449 10 0 60888 34200.00000 0 -24639321.468 5518775.671 3461054.778 10 0 60888 35100.00000 0 -24827729.467 5727856.412 243574.851 10 0 60888 36000.00000 0 -24616789.466 5848325.154 -2978647.734 10 0 60888 36900.00000 0 -24024612.073 5826988.615 -6142785.647 10 0 60888 37800.00000 0 -23081798.042 5616022.218 -9187091.582 10 0 60888 38700.00000 0 -21830125.633 5175258.480 -12052121.614 10 0 60888 39600.00000 0 -20320781.681 4474155.188 -14681915.249 10 0 60888 40500.00000 0 -18612211.441 3493357.178 -17025107.125 10 0 60888 41400.00000 0 -16767678.878 2225783.049 -19035946.789 10 0 60888 42300.00000 0 -14852641.687 677188.695 -20675205.063 10 0 60888 43200.00000 0 -12932053.129 -1133817.762 -21910948.164 10 0 60888 44100.00000 0 -11067705.747 -3176311.299 -22719163.863 10 0 60888 45000.00000 0 -9315729.832 -5408113.463 -23084227.293 10 0 60888 45900.00000 0 -7724352.359 -7777339.175 -22999197.677 10 0 60888 46800.00000 0 -6332010.481 -10224361.496 -22465940.935 10 0 60888 47700.00000 0 -5165897.995 -12684111.239 -21495076.824 10 0 60888 48600.00000 0 -4241004.288 -15088614.404 -20105752.954 10 0 60888 49500.00000 0 -3559683.932 -17369660.651 -18325251.440 10 0 60888 50400.00000 0 -3111772.426 -19461490.856 -16188437.343 10 0 60888 51300.00000 0 -2875240.243 -21303391.488 -13737061.016 10 0 60888 52200.00000 0 -2817354.730 -22842087.940 -11018929.230 10 0 60888 53100.00000 0 -2896298.121 -24033837.762 -8086962.363 10 0 60888 54000.00000 0 -3063171.053 -24846137.869 -4998156.919 10 0 60888 54900.00000 0 -3264295.201 -25258976.190 -1812474.212 10 0 60888 55800.00000 0 -3443716.628 -25265577.569 1408322.809 10 0 60888 56700.00000 0 -3545803.583 -24872614.920 4601861.934 10 0 60888 57600.00000 0 -3517829.202 -24099878.922 7706360.513 10 0 60888 58500.00000 0 -3312430.664 -22979421.809 10661808.084 10 0 60888 59400.00000 0 -2889842.069 -21554212.401 13411110.996 10 0 60888 60300.00000 0 -2219808.052 -19876359.214 15901178.215 10 0 60888 61200.00000 0 -1283098.595 -18004975.895 18083928.892 10 0 60888 62100.00000 0 -72562.059 -16003777.356 19917203.933 10 0 60888 63000.00000 0 1406327.574 -13938505.541 21365565.710 10 0 60888 63900.00000 0 3135452.689 -11874290.336 22400971.990 10 0 60888 64800.00000 0 5084565.223 -9873053.472 23003312.338 10 0 60888 65700.00000 0 7212311.575 -7991061.380 23160797.490 10 0 60888 66600.00000 0 9467729.008 -6276726.928 22870194.382 10 0 60888 67500.00000 0 11792154.116 -4768750.003 22136902.028 10 0 60888 68400.00000 0 14121467.003 -3494673.362 20974865.787 10 0 60888 69300.00000 0 16388580.659 -2469913.551 19406330.193 10 0 60888 70200.00000 0 18526074.459 -1697307.593 17461433.212 10 0 60888 71100.00000 0 20468863.977 -1167195.080 15177647.532 10 0 60888 72000.00000 0 22156796.864 -858033.430 12599077.468 10 0 60888 72900.00000 0 23537066.608 -737521.721 9775622.966 10 0 60888 73800.00000 0 24566342.620 -764187.069 6762025.129 10 0 60888 74700.00000 0 25212525.986 -889367.603 3616810.563 10 0 60888 75600.00000 0 25456055.327 -1059508.690 401154.427 10 0 60888 76500.00000 0 25290705.671 -1218675.053 -2822315.660 10 0 60888 77400.00000 0 24723844.487 -1311171.447 -5990750.773 10 0 60888 78300.00000 0 23776132.192 -1284159.171 -9042321.648 10 0 60888 79200.00000 0 22480678.235 -1090155.302 -11917443.516 10 0 60888 80100.00000 0 20881687.537 -689306.091 -14559958.894 10 0 60888 81000.00000 0 19032654.212 -51335.459 -16918253.217 10 0 60888 81900.00000 0 16994179.144 842916.556 -18946279.677 10 0 60888 82800.00000 0 14831504.414 2000432.816 -20604471.608 10 0 60888 83700.00000 0 12611869.603 3415482.216 -21860523.482 10 0 60888 84600.00000 0 10401802.550 5069630.865 -22690024.604 10 0 60888 85500.00000 0 8264459.585 6932301.454 -23076932.958 10 0 60889 0.00000 0 6257127.843 8961857.153 -23013880.315 10 0 60889 900.00000 0 4428993.573 11107165.218 -22502303.288 10 0 60889 1800.00000 0 2819272.171 13309571.180 -21552398.988 10 0 60889 2700.00000 0 1455773.492 15505203.558 -20182907.341 10 0 60889 3600.00000 0 353963.345 17627509.048 -18420725.672 10 0 60889 4500.00000 0 -483443.107 19609912.348 -16300364.578 10 0 60889 5400.00000 0 -1066341.743 21388488.816 -13863257.059 10 0 60889 6300.00000 0 -1416562.732 22904538.187 -11156935.661 10 0 60889 7200.00000 0 -1566688.176 24106952.147 -8234094.785 10 0 60889 8100.00000 0 -1558416.818 24954277.777 -5151557.380 10 0 60889 9000.00000 0 -1440547.109 25416391.905 -1969166.716 10 0 60889 9900.00000 0 -1266665.471 25475718.057 1251374.747 10 0 60889 10800.00000 0 -1092638.406 25127936.996 4447696.833 10 0 60889 11700.00000 0 -974014.658 24382163.021 7557960.665 10 0 60889 12600.00000 0 -963446.833 23260580.346 10522042.575 10 0 60889 13500.00000 0 -1108240.471 21797556.074 13282681.070 10 0 60889 14400.00000 0 -1448132.807 20038267.579 15786565.959 10 0 60889 15300.00000 0 -2013393.642 18036901.751 17985350.153 10 0 60889 16200.00000 0 -2823327.181 15854500.638 19836566.304 10 0 60889 17100.00000 0 -3885237.184 13556542.045 21304432.294 10 0 60889 18000.00000 0 -5193898.823 11210354.115 22360531.583 10 0 60889 18900.00000 0 -6731560.014 8882469.311 22984356.545 10 0 60889 19800.00000 0 -8468473.640 6636025.534 23163705.168 10 0 60889 20700.00000 0 -10363940.470 4528320.219 22894923.735 10 0 60889 21600.00000 0 -12367821.902 2608617.151 22182990.513 10 0 60889 22500.00000 0 -14422462.402 916295.724 21041437.905 10 0 60889 23400.00000 0 -16464944.404 -520581.172 19492113.124 10 0 60889 24300.00000 0 -18429584.412 -1686221.212 17564780.083 10 0 60889 25200.00000 0 -20250568.368 -2577538.491 15296568.013 10 0 60889 26100.00000 0 -21864617.714 -3204052.101 12731275.221 10 0 60889 27000.00000 0 -23213575.312 -3587250.596 9918539.330 10 0 60889 27900.00000 0 -24246802.674 -3759447.858 6912888.269 10 0 60889 28800.00000 0 -24923286.862 -3762177.497 3772689.175 10 0 60889 29700.00000 0 -25213366.760 -3644192.920 559014.957 10 0 60889 30600.00000 0 -25100003.875 -3459157.485 -2665549.437 10 0 60889 31500.00000 0 -24579541.690 -3263123.109 -5838137.045 10 0 60889 32400.00000 0 -23661919.239 -3111905.408 -8896839.999 10 0 60889 33300.00000 0 -22370327.898 -3058468.515 -11781935.784 10 0 60889 34200.00000 0 -20740324.426 -3150432.785 -14437072.707 10 0 60889 35100.00000 0 -18818436.890 -3427813.606 -16810389.405 10 0 60889 36000.00000 0 -16660322.125 -3921089.705 -18855544.638 10 0 60889 36900.00000 0 -14328552.843 -4649685.073 -20532635.641 10 0 60889 37800.00000 0 -11890128.438 -5620930.653 -21808985.910 10 0 60889 38700.00000 0 -9413815.266 -6829551.068 -22659786.406 10 0 60889 39600.00000 0 -6967429.231 -8257698.793 -23068577.438 10 0 60889 40500.00000 0 -4615175.532 -9875534.557 -23027562.142 10 0 60889 41400.00000 0 -2415157.461 -11642329.191 -22537746.172 10 0 60889 42300.00000 0 -417158.403 -13508039.860 -21608901.896 10 0 60889 43200.00000 0 1339211.020 -15415293.495 -20259359.087 10 0 60889 44100.00000 0 2825924.741 -17301693.136 -18515627.550 10 0 60889 45000.00000 0 4027455.117 -19102349.471 -16411860.518 10 0 60889 45900.00000 0 4941153.416 -20752530.714 -13989170.660 10 0 60889 46800.00000 0 5577084.137 -22190319.421 -11294813.295 10 0 60889 47700.00000 0 5957323.391 -23359164.955 -8381253.921 10 0 60889 48600.00000 0 6114753.993 -24210225.200 -5305139.090 10 0 60889 49500.00000 0 6091410.814 -24704400.396 -2126191.363 10 0 60889 50400.00000 0 5936448.337 -24813975.219 1093949.778 10 0 60889 51300.00000 0 5703817.749 -24523801.918 4292918.459 10 0 60889 52200.00000 0 5449752.383 -23831976.639 7408821.622 10 0 60889 53100.00000 0 5230167.766 -22749982.165 10381424.219 10 0 60889 54000.00000 0 5098085.423 -21302292.403 13153298.495 10 0 60889 54900.00000 0 5101188.118 -19525455.920 15670916.450 10 0 60889 55800.00000 0 5279608.268 -17466697.028 17885665.849 10 0 60889 56700.00000 0 5664041.380 -15182092.325 19754771.921 10 0 60889 57600.00000 0 6274262.803 -12734397.527 21242108.623 10 0 60889 58500.00000 0 7118109.485 -10190613.361 22318885.397 10 0 60889 59400.00000 0 8190969.527 -7619389.564 22964197.450 10 0 60889 60300.00000 0 9475801.683 -5088372.429 23165429.798 10 0 60889 61200.00000 0 10943685.526 -2661603.630 22918507.617 10 0 60889 62100.00000 0 12554881.425 -397076.088 22227987.774 10 0 60889 63000.00000 0 14260358.715 1655453.471 21106988.899 10 0 60889 63900.00000 0 16003731.053 3456305.605 19576959.900 10 0 60889 64800.00000 0 17723520.888 4977296.951 17667289.519 10 0 60889 65700.00000 0 19355660.895 6202677.641 15414762.252 10 0 60889 66600.00000 0 20836129.494 7129547.630 12862868.953 10 0 60889 67500.00000 0 22103611.198 7767733.591 10060983.279 10 0 60889 68400.00000 0 23102070.349 8139130.431 7063418.132 10 0 60889 69300.00000 0 23783129.419 8276533.974 3928379.103 10 0 60889 70200.00000 0 24108150.335 8222013.182 716834.565 10 0 60889 71100.00000 0 24049929.043 8024890.251 -2508675.651 10 0 60889 72000.00000 0 23593929.350 7739414.186 -5685269.099 10 0 60889 72900.00000 0 22739001.429 7422227.266 -8750961.869 10 0 60889 73800.00000 0 21497552.242 7129733.215 -11645896.197 10 0 60889 74700.00000 0 19895158.726 6915480.659 -14313528.533 10 0 60889 75600.00000 0 17969638.672 6827675.141 -16701752.871 10 0 60889 76500.00000 0 15769617.767 6906927.553 -18763935.486 10 0 60889 77400.00000 0 13352653.087 7184336.655 -20459839.236 10 0 60889 78300.00000 0 10782992.519 7679988.817 -21756418.164 10 0 60889 79200.00000 0 8129065.073 8401939.854 -22628466.197 10 0 60889 80100.00000 0 5460808.498 9345722.853 -23059107.050 10 0 60889 81000.00000 0 2846947.103 10494402.986 -23040116.072 10 0 60889 81900.00000 0 352334.387 11819176.716 -22572068.449 10 0 60889 82800.00000 0 -1964528.191 13280489.349 -21664311.923 10 0 60889 83700.00000 0 -4053693.090 14829622.840 -20334765.819 10 0 60889 84600.00000 0 -5875598.404 16410685.836 -18609551.686 10 0 60889 85500.00000 0 -7402454.658 17962921.093 -16522464.217 99